MPEC 2000-C27 : 2000 CM33
The following Minor Planet Electronic Circular may be linked-to from your own Web pages, but must not otherwise be redistributed electronically.A form allowing access to any MPEC is at the bottom of this page.


M.P.E.C. 2000-C27 Issued 2000 Feb. 6, 17:12 UT The Minor Planet Electronic Circulars contain information on unusual minor planets and routine data on comets. They are published on behalf of Commission 20 of the International Astronomical Union by the Minor Planet Center, Smithsonian Astrophysical Observatory, Cambridge, MA 02138, U.S.A. Prepared using the Tamkin Foundation Computer Network BMARSDEN@CFA.HARVARD.EDU or GWILLIAMS@CFA.HARVARD.EDU URL http://cfa-www.harvard.edu/iau/mpc.html ISSN 1523-6714 2000 CM33 Observations: K00C33M* C2000 02 02.35601 10 20 54.29 +13 40 10.7 16.2 R 703 K00C33M C2000 02 02.36781 10 21 02.04 +13 42 18.3 16.0 R 703 K00C33M C2000 02 02.37958 10 21 09.83 +13 44 25.5 16.2 R 703 K00C33M C2000 02 02.39134 10 21 17.55 +13 46 32.3 16.2 R 703 K00C33M C2000 02 02.92708 10 28 00.27 +15 24 50.5 557 K00C33M C2000 02 02.92767 10 28 00.69 +15 24 57.0 557 K00C33M C2000 02 02.92826 10 28 01.12 +15 25 04.1 557 K00C33M C2000 02 02.92944 10 28 01.99 +15 25 17.8 557 K00C33M C2000 02 02.93003 10 28 02.42 +15 25 24.4 557 K00C33M C2000 02 02.93064 10 28 02.86 +15 25 31.2 16.4 V 557 K00C33M C2000 02 03.22722 10 31 49.49 +16 25 46.5 17.2 V 860 K00C33M C2000 02 03.22792 10 31 50.05 +16 25 55.5 16.6 V 860 K00C33M C2000 02 03.22856 10 31 50.55 +16 26 03.4 16.7 V 860 K00C33M C2000 02 03.27722 10 32 33.58 +16 32 33.7 17.3 R 750 K00C33M C2000 02 03.28065 10 32 36.17 +16 33 16.0 17.7 R 750 K00C33M C2000 02 03.28911 10 32 42.60 +16 34 55.1 17.0 R 750 K00C33M C2000 02 03.29258 10 32 45.17 +16 35 35.8 750 K00C33M C2000 02 03.29605 10 32 47.90 +16 36 17.6 750 K00C33M C2000 02 03.30300 10 32 53.21 +16 37 40.8 750 K00C33M C2000 02 03.30401 10 32 56.51 +16 38 16.9 15.9 704 K00C33M C2000 02 03.30660 10 32 56.06 +16 38 23.4 750 K00C33M C2000 02 03.31008 10 32 58.60 +16 39 04.4 750 K00C33M C2000 02 03.31465 10 33 01.92 +16 39 56.1 750 K00C33M C2000 02 03.31836 10 33 07.32 +16 41 07.4 16.4 704 K00C33M C2000 02 03.32060 10 33 06.50 +16 41 07.3 750 K00C33M C2000 02 03.32715 10 33 11.42 +16 42 23.5 750 K00C33M C2000 02 03.33261 10 33 18.07 +16 43 56.3 16.3 704 K00C33M C2000 02 03.34721 10 33 29.07 +16 46 49.3 16.3 704 K00C33M C2000 02 03.35711 10 33 38.51 +16 48 43.8 670 K00C33M C2000 02 03.36149 10 33 39.85 +16 49 38.5 16.1 704 K00C33M C2000 02 03.42333 10 34 28.70 +17 01 49.7 670 K00C33M IC2000 02 03.48380 10 35 15.15 +17 13 45.7 670 K00C33M C2000 02 03.51978 10 35 56.76 +17 23 37.4 16.3 R 422 K00C33M C2000 02 03.52021 10 35 57.09 +17 23 42.9 16.2 R 422 K00C33M C2000 02 03.52152 10 35 58.14 +17 23 58.9 16.2 R 422 K00C33M C2000 02 03.84278 10 40 30.71 +18 25 26.1 15.9 R 046 K00C33M C2000 02 03.84420 10 40 31.92 +18 25 43.9 046 K00C33M C2000 02 03.84493 10 40 32.55 +18 25 53.2 15.8 R 046 K00C33M C2000 02 03.84638 10 40 33.77 +18 26 11.3 046 K00C33M C2000 02 03.84748 10 40 34.71 +18 26 25.1 046 K00C33M C2000 02 03.84840 10 40 35.50 +18 26 36.7 15.7 R 046 K00C33M C2000 02 03.86955 10 40 54.44 +18 31 14.2 16.0 V 596 K00C33M C2000 02 03.87115 10 40 55.59 +18 31 34.7 596 K00C33M C2000 02 03.87321 10 40 57.38 +18 32 00.0 596 K00C33M C2000 02 04.03045 10 43 08.41 +19 04 40.4 16.6 106 K00C33M C2000 02 04.04809 10 43 23.28 +19 08 20.2 106 K00C33M C2000 02 04.06573 10 43 38.19 +19 12 01.6 16.5 106 K00C33M C2000 02 04.33050 10 47 43.43 +20 08 23.1 651 K00C33M C2000 02 04.33185 10 47 44.60 +20 08 40.5 651 K00C33M C2000 02 04.33315 10 47 45.73 +20 08 57.3 651 K00C33M C2000 02 04.42689 10 49 08.14 +20 28 05.7 16.1 V 681 K00C33M C2000 02 04.42828 10 49 09.40 +20 28 23.4 16.2 V 681 K00C33M C2000 02 04.45145 10 49 30.09 +20 33 18.5 16.4 V 681 K00C33M C2000 02 04.45281 10 49 31.29 +20 33 36.0 16.0 V 681 K00C33M C2000 02 04.45417 10 49 32.51 +20 33 53.1 16.1 V 681 K00C33M C2000 02 04.48069 10 49 56.35 +20 39 32.2 16.2 V 681 K00C33M C2000 02 04.48205 10 49 57.58 +20 39 49.5 16.0 V 681 K00C33M C2000 02 04.48340 10 49 58.81 +20 40 06.7 16.3 V 681 K00C33M C2000 02 04.58396 10 51 43.03 +21 05 26.1 15.3 R 422 K00C33M C2000 02 04.58504 10 51 44.00 +21 05 40.4 15.3 R 422 K00C33M C2000 02 04.58580 10 51 44.68 +21 05 50.3 15.8 R 422 K00C33M C2000 02 04.85684 10 56 12.29 +22 01 10.2 15.9 V 596 K00C33M C2000 02 04.85795 10 56 13.37 +22 01 25.7 596 K00C33M C2000 02 04.85906 10 56 14.47 +22 01 40.9 596 K00C33M C2000 02 04.87558 10 56 30.13 +22 05 10.3 587 K00C33M C2000 02 04.87702 10 56 31.63 +22 05 30.6 587 K00C33M C2000 02 04.87847 10 56 33.03 +22 05 50.9 587 K00C33M C2000 02 05.23726 11 02 35.49 +23 25 45.8 17.3 R 750 K00C33M C2000 02 05.24227 11 02 40.46 +23 26 54.1 17.6 R 750 K00C33M C2000 02 05.24896 11 02 47.08 +23 28 25.9 17.0 R 750 K00C33M C2000 02 05.27402 11 03 12.96 +23 34 21.1 15.6 V 739 K00C33M C2000 02 05.27515 11 03 14.09 +23 34 36.7 15.7 V 739 K00C33M C2000 02 05.27684 11 03 15.81 +23 34 59.8 15.8 V 739 K00C33M C2000 02 05.48486 11 06 48.08 +24 21 16.7 15.5 V 681 K00C33M C2000 02 05.48553 11 06 48.78 +24 21 25.9 15.5 V 681 K00C33M C2000 02 05.49484 11 06 58.35 +24 23 30.7 15.4 V 681 K00C33M C2000 02 05.49586 11 06 59.40 +24 23 44.5 15.4 V 681 K00C33M C2000 02 05.52122 11 07 41.12 +24 29 43.3 15.6 V 903 K00C33M C2000 02 05.52427 11 07 44.35 +24 30 26.3 903 K00C33M C2000 02 05.52733 11 07 47.62 +24 31 08.7 903 K00C33M C2000 02 05.63688 11 09 39.36 +24 59 36.4 15.3 R 422 K00C33M C2000 02 05.63741 11 09 39.91 +24 59 44.0 15.4 R 422 K00C33M C2000 02 05.63791 11 09 40.42 +24 59 50.7 15.4 R 422 K00C33M C2000 02 05.65144 11 09 56.98 +24 59 52.0 15.6 V 402 K00C33M C2000 02 05.65269 11 09 58.29 +25 00 09.5 402 K00C33M C2000 02 05.65395 11 09 59.62 +25 00 27.1 402 K00C33M C2000 02 05.65521 11 10 00.92 +25 00 44.2 402 K00C33M C2000 02 05.82914 11 13 19.52 +25 39 04.1 16.3 R 151 K00C33M C2000 02 05.83613 11 13 27.41 +25 40 42.6 16.5 R 151 K00C33M C2000 02 05.83926 11 13 30.90 +25 41 26.2 16.8 R 151 K00C33M C2000 02 05.84205 11 13 34.02 +25 42 05.4 15.7 R 151 K00C33M C2000 02 05.84649 11 13 39.04 +25 43 09.0 16.0 R 151 K00C33M C2000 02 05.84933 11 13 42.10 +25 43 46.6 16.1 R 151 K00C33M C2000 02 05.87344 11 14 08.61 +25 49 23.4 611 K00C33M C2000 02 05.87436 11 14 09.63 +25 49 36.1 611 K00C33M C2000 02 05.87575 11 14 11.19 +25 49 55.8 611 K00C33M C2000 02 05.87685 11 14 12.45 +25 50 11.2 611 K00C33M C2000 02 05.87888 11 14 14.64 +25 50 39.8 611 K00C33M C2000 02 05.88009 11 14 16.03 +25 50 57.0 611 K00C33M C2000 02 05.99865 11 16 25.96 +26 18 36.5 557 K00C33M C2000 02 05.99912 11 16 26.49 +26 18 43.2 557 K00C33M C2000 02 05.99959 11 16 27.01 +26 18 49.8 557 K00C33M C2000 02 06.00013 11 16 27.59 +26 18 57.2 557 K00C33M C2000 02 06.00060 11 16 28.11 +26 19 03.6 15.6 V 557 K00C33M C2000 02 06.38744 11 24 01.18 +27 49 07.5 15.3 V 858 K00C33M C2000 02 06.38951 11 24 03.48 +27 49 36.8 15.5 V 858 K00C33M C2000 02 06.39114 11 24 05.36 +27 49 58.9 15.5 V 858 K00C33M C2000 02 06.39269 11 24 07.12 +27 50 20.8 15.7 V 858 K00C33M C2000 02 06.39436 11 24 09.05 +27 50 44.3 15.4 V 858 Observer details: 046 Klet. Observers M. Tichy, Z. Moravec. 0.57-m f/5.2 reflector + CCD. 106 Crni Vrh. Observer H. Mikuz. 0.36-m f/6.7 Schmidt-Cassegrain + CCD. 151 Eschenberg Observatory, Winterthur. Observer M. Griesser. 0.25-m f/8.0 reflector + CCD. 402 Dynic Astronomical Observatory. Observer A. Sugie. 0.60-m f/3.7 reflector + CCD. 422 Loomberah. Observer G. J. Garradd. 0.45-m f/5.4 reflector + CCD. 557 Ondrejov. Observers P. Pravec, P. Kusnirak. 0.65-m f/3.6 reflector + CCD. 587 Sormano. Observers G. Ventre, M. Cavagna. 0.5-m reflector + CCD. 596 Colleverde di Guidonia. Observer V. S. Casulli. 0.40-m f/2.95 reflector + CCD. 611 Starkenburg. Observers M. Busch, R. Kresken, A. Seib, R. Stoss. 0.45-m f/4.4 reflector + CCD. 651 Grasslands Observatory, Tucson. Observer J. E. McGaha. 0.62-m f/5.1 reflector + CCD. 670 Camarillo. Observer J. E. Rogers. 0.30-m f/6.7 Helin Telescope + CCD. 681 Calgary. Observer G. W. Billings. 0.36-m f/7 Schmidt-Cassegrain + CCD. 703 Catalina Sky Survey. Observer S. M. Larson. 0.41-m f/3 Schmidt + CCD. 704 Lincoln Laboratory ETS, New Mexico. Observers M. Blythe, F. Shelly, M. Bezpalko, M. Elowitz, R. Huber. Measurers J. Stuart, H. Viggh, R. Sayer, J. B. Evans. 1.0-m f/2.15 reflector + CCD. 739 Sunflower Observatory, Olathe. Observer L. Robinson. 0.25-m Schmidt-Cassegrain + CCD. 750 Hobbs Observatory, Fall Creek. Observer R. Elliott. 0.3-m f/3.3 reflector + CCD. 858 Tebbutt Observatory, Edgewood. Observer F. B. Zoltowski. 0.3-m f/3.3 Schmidt-Cassegrain + CCD. 860 Valinhos. Observer P. R. Holvorcem. 0.36-m f/3.6 Schmidt-Cassegrain + CCD. 903 Fukuchiyama. Observer M. Yoshimi. 0.25-m f/6.3 Schmidt-Cassegrain + CCD. Orbital elements: 2000 CM33 PHA 0.042A Epoch 2000 Jan. 17.0 TT = JDT 2451560.5 Williams M 320.89165 (2000.0) P Q n 0.64771284 Peri. 50.00829 -0.98724703 +0.06194572 a 1.3229630 Node 132.99540 -0.09944589 -0.95931310 e 0.2722591 Incl. 11.56635 +0.12431337 -0.27546525 P 1.52 H 21.4 G 0.15 From 109 observations 2000 Feb. 2-6. Ephemeris: 2000 CM33 a,e,i = 1.32, 0.27, 12 q = 0.9628 Date TT R. A. (2000) Decl. Delta r Elong. Phase V 2000 01 27 09 28.25 +00 01.8 0.082 1.061 157.2 21.1 17.1 2000 02 01 10 06.08 +09 53.6 0.062 1.044 161.3 17.6 16.4 2000 02 06 11 16.40 +26 20.0 0.049 1.028 150.1 28.6 16.1 2000 02 11 13 22.24 +43 23.7 0.047 1.014 123.9 53.9 16.8 2000 02 16 15 41.93 +48 13.7 0.058 1.001 101.6 75.1 17.9 2000 02 21 17 08.18 +45 39.8 0.076 0.990 88.6 87.0 18.8 2000 02 26 17 54.79 +42 18.9 0.096 0.980 81.5 92.9 19.6 2000 03 02 18 22.70 +39 32.0 0.116 0.973 77.7 95.6 20.1 2000 03 07 18 41.56 +37 18.6 0.137 0.967 75.6 96.5 20.5 2000 03 17 19 07.08 +33 56.1 0.177 0.963 74.5 95.3 21.0 2000 03 27 19 25.93 +31 23.7 0.214 0.967 75.5 92.1 21.2 2000 04 06 19 41.88 +29 23.2 0.246 0.979 77.9 87.9 21.4 2000 04 16 19 55.73 +27 42.1 0.271 0.999 81.3 83.1 21.5 2000 04 26 20 07.52 +26 11.8 0.290 1.026 85.7 77.9 21.5 2000 05 06 20 16.53 +24 43.6 0.301 1.058 91.1 72.4 21.4 2000 05 16 20 21.84 +23 03.3 0.305 1.095 97.8 66.2 21.4 2000 05 26 20 22.61 +20 54.5 0.303 1.134 105.9 59.2 21.2 2000 06 05 20 17.85 +17 56.6 0.299 1.175 115.7 51.1 21.0 2000 06 15 20 07.27 +13 46.2 0.295 1.217 127.4 41.5 20.8 2000 06 25 19 51.79 +08 13.7 0.296 1.260 140.7 30.7 20.6 2000 07 05 19 33.65 +01 36.1 0.309 1.301 154.1 20.0 20.4 2000 07 15 19 16.40 -05 17.1 0.337 1.342 162.9 12.9 20.4 2000 07 25 19 03.11 -11 29.8 0.382 1.381 160.1 14.5 20.8 2000 08 04 18 55.43 -16 31.3 0.444 1.419 150.8 20.4 21.4 2000 08 14 18 53.73 -20 18.4 0.520 1.455 141.0 26.0 22.0 Gareth V. Williams (C) Copyright 2000 MPC M.P.E.C. 2000-C27


Enter an MPEC number in one of the following forms:
- 1997-B01 (the full form)
- J97B01 (the packed version of the full form)
- B01 (the abbreviated form)